星链-31408 (STARLINK-31408 )

导读 | 豆包AI

STARLINK-31408是美国太空探索技术公司(SpaceX)于2024年3月16日发射的星链(Starlink)卫星,隶属于星链全球卫星互联网星座。作为星链快速扩张阶段部署的卫星,它运行于低地球轨道,依托星链技术迭代成果,助力实现全球范围高速低延迟宽带互联网覆盖,服务地面、海上和航空等场景的网络接入需求,进一步巩固星链作为全球规模最大低轨卫星星座的优势。

基本信息
目录编号:
59240
目录名称:
STARLINK-31408
国际标识:
2024-049K
轨道中心:
EARTH
卫星名称:
星链-31408
卫星全名:
星链-31408 (STARLINK-31408 )
卫星状态:
在轨 (已飞行775 天)
发射日期:
2024-03-16 UTC
国别 :
美国 (US)
星等 :
--
轨道信息
数据来源 国际轨道数据 AOE轨道数据
星历时间 2026-04-30T22:41:56+0800
7小时前
查看轨道信息
2026-04-30T08:00:00+0800
22小时前
查看轨道信息
半长轴 6861.165km 6861.214km
偏心率 0.0001145 0.0002283
轨道倾角 43.000° 43.004°
近地点辐角 280.699° 290.833°
升交点赤经 210.592° 214.054°
平近点角 79.374° 297.189°
近地点 482.242km 481.51km
远地点 483.814km 484.644km
周期 94.266分钟 94.267分钟
每日圈数 15.275873 15.275709
详细信息
固有亮度:
5
最大亮度:
0.3
卫星平台:
Starlink v2.0 mini
覆盖范围:
全球
运营商:
太空探索技术公司
运营商所在国:
美国
制造商(研发单位):
太空探索技术公司
制造商所在国:
美国
使用方式:
暂无
卫星简介
星链(Starlink)计划是由太空探索技术公司(SpaceX)提出的一个巨型低轨卫星互联网星座项目,计划在2019年至2024年间在太空搭建由约1.2万颗卫星组成的“星链”网络,其中1584颗将部署在地球上空550千米处的近地轨道,并从2020年开始工作。该卫星仍在工作。
2D轨道图
3D轨道图
轨道高度分析图
轨道倾角分析图
轨道综合分析图
查看轨道综合分析图